Location: Unspecified
(22.6800°N, 112.2000°E)
Time: 12:49:20
(UTC+08:00)

Transit 2A - Pass Details

Date: 10 August 2021
Orbit: 594 x 964 km, 66.7° (Epoch: 21 September)

Event Time Altitude Azimuth Distance (km) Brightness Sun altitude
Rises 13:37:53 0° 348° (NNW) 3,413 9.3 73.8°
Reaches altitude 10° 13:40:26 10° 355° (N) 2,527 8.8 73.3°
Maximum altitude 13:46:01 42° 65° (ENE) 1,298 7.6 72.1°
Drops below altitude 10° 13:51:54 10° 134° (SE) 2,674 8.8 70.8°
Sets 13:54:38 0° 141° (SE) 3,631 9.4 70.2°
